Showing default

SHIYAN 6 02 (SY-6 02), 45859

Orbit data source: Space-Track

SHIYAN 6 02 (SY-6 02), 45859 is a payload satellite owned by CNSA (CN) in SSO that was launched on Sat, 04 Jul 2020 UTC via a CHANG ZHENG 2D launch vehicle from the Jiuquan Satellite Launch Center, China (JSC). Payload-class satellites include a variety of spacecraft equipped with specific instruments for various scientific and technological missions. These include communications satellites like Starlink; space stations such as the ISS; scientific satellites like the Hubble; Earth observation satellites from companies like Planet Labs, Umbra, and HawkEye 360; GPS; miniature CubeSats for education and research; and military/defense satellites.

Loading next visibility...
Identifier
45859, 2020-043A
Orbit
SSO
Country
Flag of CNCN / PRC
Related business
Manufacturer
DFH Shenzhen
Mission
Operational Defense Technology
Bus & Motor
SW6, AOCS
Mass
~1,000 kg wet, ~900 kg dry
Launch date (UTC)
2020-07-04 (6 years ago)
Launch vehicle
CHANG ZHENG 2D
Launch site
Jiuquan Satellite Launch Center, China (JSC)
Object type
Payload
Rocket body
Debris
Shape & HBR
Box + 2 Pan, Unknown HBR
Radar Cross Section
3.315 m², Large (>1 m²)

Expand to show TLE details & history
Last TLE update: 23 hours ago

TLE from 23 hours ago
0 SHIYAN 6 02 (SY-6 02)
1 45859U 20043A   26172.54498683  .00000128  00000-0  33292-4 0  9999
2 45859  98.1842 183.8092 0128107 212.4661 146.8614 14.60934447317493
Epoch: 2026-06-21T13:04Z
TLE epoch observation values (Epoch: 2026-06-21T13:04:46.862Z)
Latitude
0.00002°
Longitude
77.87021°
Altitude
769.324 km
Speed
7.429 km/s
True Right ascension
12h 15m 14s
True Declination
0° 00' 00"
Sunlit
Object was in daylight at epoch
Visualization orbit readout
Latitude
Unknown
Longitude
Unknown
Altitude
Unknown
Speed
Unknown
Apparent Right ascension
Unknown
Apparent Declination
Unknown
Sunlit
N/A
Visualization observer readout
Local Sidereal Time
23:07:26
Azimuth
Unknown
Elevation
Unknown
Doppler factor
Unknown
Orbital elements
Apogee altitude
777.749 km
Perigee altitude
596.724 km
Semi-major axis
7,065.374 km
Eccentricity
0.01281
Inclination
98.1842°
RAAN
183.8092°
Arg. of periapsis
212.4661°
True anomaly
147.65326°
Mean anomaly
146.8614°
Eccentric anomaly
147.25838°
Mean motion
3.65461 °/min
Orbital period
98.51 mins
BSTAR
0.000033292
Loading maneuver chart data...
Computing Atmospheric mass density...
Loading historical data...
Loading historical data...
Loading historical data...
Loading historical data...
Loading historical data...
Loading historical data...
Loading historical data...
Other satellites on launch #43 in the year 2020 (2020-07-04 UTC)

Documentation

Showing up to 5 results
|